Weather History for KEVW - November, 2011

Change the Weather History Date:

Wednesday, November 2, 2011

  Actual Average Record
Temperature  
Mean Temperature 22 °F 36 °F  
Max Temperature 28 °F 46 °F 58 °F (2010)
Min Temperature 15 °F 27 °F 5 °F (2002)
Degree Days  
Heating Degree Days 43 29  
Month to date heating degree days 78 57  
Since 1 July heating degree days 886 1110  
Cooling Degree Days 0 0  
Month to date cooling degree days 0 0  
Year to date cooling degree days 166 162  
Moisture  
Dew Point 14 °F    
Average Humidity 74    
Maximum Humidity 81    
Minimum Humidity 67    
Precipitation  
Precipitation 0.00 in 0.06 in 0.13 in (2008)
Month to date precipitation 0.34 0.11  
Year to date precipitation 7.35 10.62  
Sea Level Pressure  
Sea Level Pressure 30.50 in    
Wind  
Wind Speed 3 mph (East)    
Max Wind Speed 7 mph    
Max Gust Speed -    
Visibility 10 miles    
Events      
T = Trace of Precipitation, MM = Missing Value Source: NWS Daily Summary

Daily Weather History Graph

Daily Weather History Graph

Search for Another Location

Airport or City:

Trip Planner

Search our weather history database for the weather conditions in past years. The results will help you decide how hot, cold, wet, or windy it might be!

Date:

Astronomy

Nov. 02, 2011 Rise Set
Actual Time 7:56 AM MDT 6:18 PM MDT
Civil Twilight 7:27 AM MDT 6:47 PM MDT
Nautical Twilight 6:54 AM MDT 7:19 PM MDT
Astronomical Twilight 6:22 AM MDT 7:51 PM MDT
Moon 2:17 PM MDT (11/2) 12:05 AM MDT (11/2)
Length of Visible Light 11h 19m
Length of Day
10h 22m
Waxing Crescent, 51% of the Moon is Illuminated
Nov 2
Waxing Crescent
Nov 10
Full
Nov 18
Last Quarter
Nov 24
New
Dec 2
First Quarter

Hourly Weather History & Observations

Time (MDT) Temp. Windchill Dew Point Humidity Pressure Visibility Wind Dir Wind Speed Gust Speed Precip Events Conditions
12:53 AM 19.0 °F 12.3 °F 10.0 °F 68% 30.38 in 10.0 mi NNE 4.6 mph - N/A   Clear
1:53 AM 16.0 °F - 8.1 °F 71% 30.40 in 10.0 mi Calm Calm - N/A   Partly Cloudy
2:53 AM 15.1 °F 6.4 °F 9.0 °F 77% 30.43 in 10.0 mi East 5.8 mph - N/A   Mostly Cloudy
3:53 AM 19.0 °F - 10.0 °F 68% 30.43 in 10.0 mi Calm Calm - N/A   Overcast
4:53 AM 18.0 °F 12.7 °F 10.0 °F 71% 30.45 in - North 3.5 mph - N/A   Overcast
5:53 AM 18.0 °F 11.1 °F 12.0 °F 78% 30.48 in 10.0 mi NNE 4.6 mph - N/A   Clear
6:53 AM 18.0 °F 8.7 °F 12.9 °F 81% 30.51 in - NNE 6.9 mph - N/A   Clear
7:53 AM 17.1 °F 10.0 °F 12.0 °F 81% 30.54 in - NE 4.6 mph - N/A   Clear
8:53 AM 18.0 °F 8.7 °F 10.9 °F 74% 30.57 in - NE 6.9 mph - N/A   Clear
9:53 AM 21.0 °F - 12.9 °F 71% 30.58 in - Calm Calm - N/A   Clear
10:53 AM 21.9 °F - 16.0 °F 78% 30.56 in - Calm Calm - N/A   Clear
11:53 AM 24.1 °F - 17.1 °F 75% 30.57 in - Calm Calm - N/A   Clear
12:53 PM 26.1 °F - 18.0 °F 71% 30.55 in - Calm Calm - N/A   Clear
1:53 PM 26.1 °F 20.5 °F 19.9 °F 78% 30.56 in 10.0 mi NNW 4.6 mph - N/A   Clear
2:53 PM 26.1 °F 20.5 °F 21.0 °F 81% 30.55 in 10.0 mi SW 4.6 mph - N/A   Clear
3:53 PM 25.0 °F 19.3 °F 19.0 °F 78% 30.53 in 10.0 mi SW 4.6 mph - N/A   Clear
4:53 PM 26.1 °F 21.9 °F 19.0 °F 75% 30.53 in 10.0 mi SSW 3.5 mph - N/A   Clear
5:53 PM 26.1 °F - 19.0 °F 75% 30.52 in 10.0 mi Calm Calm - N/A   Clear
6:53 PM 23.0 °F 17.0 °F 18.0 °F 81% 30.52 in 10.0 mi SE 4.6 mph - N/A   Clear
7:53 PM 21.0 °F 13.4 °F 16.0 °F 81% 30.53 in 10.0 mi SSE 5.8 mph - N/A   Clear
8:53 PM 19.9 °F 11.1 °F 15.1 °F 81% 30.52 in 10.0 mi SSE 6.9 mph - N/A   Clear
9:53 PM 21.0 °F 14.6 °F 14.0 °F 74% 30.48 in 10.0 mi ESE 4.6 mph - N/A   Clear
10:53 PM 21.0 °F 14.6 °F 14.0 °F 74% 30.47 in 10.0 mi East 4.6 mph - N/A   Clear
11:53 PM 19.0 °F 10.0 °F 12.0 °F 74% 30.45 in 10.0 mi ESE 6.9 mph - N/A   Clear